TIANMU-1 19

Last updated on Tue Jul 08 2025 00:02:22 GMT+0000 (Coordinated Universal Time)

1 58660U 23208A 25188.57332207 .00005422 00000+0 22362-3 0 9993 2 58660 97.4299 300.5038 0007301 96.4539 263.7530 15.24455847 84703
UTC large
Height (km)
Speed (km/s)
/
Latitude / Longitude
Inclination (degrees)
Orbital Period (minutes)
Azimuth
Elevation
Range (km)
Doppler Factor

Next 0 passes for location: London (51.5072 / 0.1276)

Sorry there are no passes over London.